{"data":{"norad_id":56773,"intl_designator":"2023-078G","name":"STARLINK-6296","alt_names":[],"object_type":"PAYLOAD","status":"ACTIVE","operator":null,"country":"US","launch_date":"2023-05-31","launch_site_code":"AFWTR","launch_vehicle":null,"mission":null,"orbit_class":"UNKNOWN","rcs_meters":null,"size_class":null,"mass_kg":null,"dimensions":null,"purposes":["comms"],"wikipedia_slug":null,"has_3d_model":false,"image_url":null,"decayed_at":null,"tle_current":{"epoch":"2026-05-25T03:21:05.316768Z","epoch_age_seconds":77176,"freshness":"FRESH","line1":"1 56773U 23078G   26145.13964487  .00000073  00000+0  13932-4 0  9999","line2":"2 56773  69.9993 111.8710 0003682 266.4064  93.6674 14.98332651165112","mean_motion":14.98332651,"eccentricity":0.0003682,"inclination_deg":69.9993,"raan_deg":111.871,"arg_perigee_deg":266.4064,"mean_anomaly_deg":93.6674,"bstar":1.3932e-5,"rev_number":16511,"period_min":96.106829083577,"perigee_km":569.48863495374,"apogee_km":574.60675096163,"semimajor_km":6950.1846929577,"source":"CELESTRAK","updated_at":"2026-05-25T13:38:18.124373Z"}}}